weather.gov     
National Weather Service

Regional Weather Roundup
NWS Homepage
This page is being discontinued on March 12, 2014.
The same data is available at this site. Please update your bookmarks.
Thank you, and we apologize for the inconvenience.
Please send an email to SR-SRH.Webmaster@noaa.gov with any concerns.


Current Version
Previous Version:    01  02  03  04  05  06  07  08  09  10  11  12  13  14  15  16  17  18  19  20  21  22  23  24  25  26  27  28  29  30  
   31  32  33  34  35  36  37  38  39  40  41  42  43  44  45  46  47  48  49  50  51  52  53  54  55  56  57  58  59  60  
[Printable]
487
ASUS46 KPDT 230725
RWRPDT
PENDLETON REGIONAL WEATHER ROUNDUP
NATIONAL WEATHER SERVICE PENDLETON OREGON
1100 PM PST SAT NOV 22 2014

NOTE: FAIR INDICATES FEW OR NO CLOUDS BELOW 12,000 FEET WITH NO
SIGNIFICANT WEATHER AND/OR OBSTRUCTIONS TO VISIBILITY.

# INDICATES UNOFFICIAL STATION AND DATA

WAZ520-230810-
EAST SLOPES OF WASHINGTON CASCADES

CITY            SKY/WX      TMP DP  RH  WIND    PRES   REMARKS
#BULLFROG 2SW   N/A         34  35  100 S2      27.66R
#BUMPING DAM    N/A         33  N/A N/A S1      N/A
#CLE ELUM HS    N/A         36  35  96  SW2     30.02R
#CLE ELUM 2NW   N/A         35  35  100 MISG    N/A
#CLE ELUM LAKE  N/A         34  33  96  CALM    30.13R
#CLIFFDEL 2NW   N/A         33  32  96  N2      N/A
#GLENWOOD       N/A         42  36  79  S5      30.13R
#MANASTASH CYN  N/A         27  24  88  CALM    29.99R
#NELSON         N/A         36  35  96  CALM    30.13R
#NELSON 3SW     N/A         34  32  92  CALM    30.32R
#NILE           N/A         27  26  96  CALM    29.39R
#RONALD 2NW     N/A         35  33  92  NE3     29.93R
#SNOWDEN        N/A         38  32  79  NW2     N/A
#TEANAWAY 4NE   N/A         34  34  100 CALM    N/A
#TROUT LAKE HS  N/A         38  37  96  W2      N/A
#TROUT LAKE 1NE N/A         34  32  92  NW1     30.19R
$$

WAZ521-230810-
SIMCOE HIGHLANDS

CITY            SKY/WX      TMP DP  RH  WIND    PRES   REMARKS
#BICKLETON HS   N/A         34  20  56  W2      30.15R
#CENTERVILLE 4W N/A         41  36  82  NW17    29.85R WCI 33
#CENTERVILLE 1SWN/A         40  35  82  SW9     30.13R
#GOLDENDALE     N/A         37  33  85  W6      N/A
#GOLDENDALE 1NE N/A         37  31  79  CALM    N/A
#GOLDENDALE 1S  N/A         38  34  85  SW1     30.08R
#GOODNOE HILLS  N/A         44  36  73  W26     N/A    WCI 35
#LYLE 6NE       N/A         43  38  82  SW7     30.14R
$$

WAZ026-230810-
KITTITAS VALLEY

CITY            SKY/WX      TMP DP  RH  WIND    PRES   REMARKS
ELLENSBURG AP   LGT SNOW    39  32  76  W16     30.04R WCI 30
#ELLENSBURG CWU N/A         38  34  85  W5      30.04R
#ELLENSBURG 3NE N/A         36  33  89  W6      30.03R
#ELLENSBURG     N/A         41  39  93  W7      N/A
#ELLENSBURG 1E  N/A         36  31  82  CALM    N/A
#KITTITAS 4N    N/A         34  29  82  CALM    30.09R
#KITTITAS 3S    N/A         32  29  89  CALM    30.09R
#THORP 6N       N/A         38  35  89  NW24G47 30.09R WCI 27
$$

WAZ027-230810-
YAKIMA VALLEY

CITY            SKY/WX      TMP DP  RH  WIND    PRES   REMARKS
SUNNYSIDE AP    CLEAR       30  27  88  SE3     30.10R
YAKIMA AIRPORT  CLEAR       41  28  59  N5      30.07R
YAKIMA-VAGABOND CLEAR       34  30  85  VRB1    30.08R
#DONALD 2NE     N/A         42  24  48  S1      28.92R
#GRANDVIEW      N/A         32  27  82  CALM    30.14R
#MABTON         N/A         38  29  70  CALM    30.08R
#NACHES 2SW     N/A         39  32  76  W6      30.03R
#OUTLOOK DOT    N/A         N/A N/A N/A CALM    N/A
#SELAH 8E       N/A         34  28  78  SW7     N/A
#TERRACE HTS    N/A         37  31  79  W3      30.08R
#TOPPENISH      N/A         42  29  60  CALM    30.01R
#WAPATO 4NE     N/A         42  24  48  S1      28.92R
#WEST VALLEY    N/A         42  30  62  N3      30.08R
#W YAKIMA       N/A         40  31  70  N1      30.11R
#WHITE SWAN 5E  N/A         45  31  58  SW5     30.10R
#WILEY CITY 3W  N/A         39  29  67  CALM    30.03R
$$

WAZ028-230810-
LOWER COLUMBIA BASIN...WASHINGTON

CITY            SKY/WX      TMP DP  RH  WIND    PRES   REMARKS
PASCO           PTCLDY      41  34  76  SW16    30.11R WCI 33
PROSSER AWOS    N/A         30  28  92  N5      30.13R
RICHLAND AWOS   PTCLDY      39  32  76  CALM    30.10R
#BASIN CITY 5SW N/A         39  33  79  S3      30.09R
#BENTON CITY    N/A         41  33  73  S14     30.01R WCI 33
#CONNELL 5N     N/A         33  30  89  SW5     30.09R
#CONNELL 5NW    N/A         35  32  89  SW5     30.06R
#ELTOPIA 6NW    N/A         39  33  79  W8      29.04R
#KAHLOTUS       N/A         37  33  85  W21     30.08R WCI 26
#KENNEWICK      N/A         34  35  100 S2      27.66R
#KENNEWICK 3S   N/A         40  35  82  S8      30.11R
#PASCO-BROADMOORN/A         42  34  73  SW5     30.00
#PATERSON       N/A         41  36  82  SW5     30.11R
#PROSSER        N/A         43  27  53  S9      30.11R
#SAGEMOOR 2W    N/A         38  33  82  N3      29.95R
#TOUCHET 2S     N/A         43  36  76  SW15    30.08R WCI 36
#WEST PASCO     N/A         41  34  76  SW1     30.10R
$$

WAZ029-230810-
FOOTHILLS OF THE BLUES...WASHINGTON

CITY            SKY/WX      TMP DP  RH  WIND    PRES   REMARKS
WALLA WALLA AP  CLOUDY      42  34  73  S12     30.11R WCI 35
#COLLEGE PLACE  N/A         41  30  65  S1      30.15R
#DAYTON SCHOOL  N/A         40  29  64  SW7     30.09R
#LOWDEN 2SE     N/A         42  35  76  W2      30.09R
#PLEASANT VIEW 1N/A         34  33  96  SW10    30.14R
#PRESCOTT       N/A         38  35  89  CALM    30.10R
#SUDBURY        N/A         41  N/A N/A CALM    N/A
#WHITMAN COLLEGEN/A         43  35  73  SE2     30.19R
#WAITSBURG 5S   N/A         38  34  85  S14     30.22R WCI 30
#WAITSBURG 8N   N/A         35  28  75  S7      30.03R
#WALLA WALLA 5E N/A         41  35  79  S6      N/A
#WALLA WALLA U  N/A         44  36  73  CALM    30.12R
#WHITMAN MISSIONN/A         44  36  73  SW10    30.13R
$$

WAZ030-230810-
BLUE MOUNTAINS...WASHINGTON

CITY            SKY/WX      TMP DP  RH  WIND    PRES   REMARKS
#DIXIE 5SE      N/A         35  31  85  SW15G24 30.01R WCI 25
$$

ORZ009-041-WAZ024-230810-
COLUMBIA RIVER GORGE

CITY            SKY/WX      TMP DP  RH  WIND    PRES   REMARKS
HOOD RIVER AP   CLOUDY      45  41  86  W9      30.17R
THE DALLES AP   PTCLDY      49  37  63  VRB5    30.16R
#ARLINGTON AIRPON/A         44  37  76  SW14    29.89F WCI 37
#CELILO DOT     N/A         48  36  63  SW7     N/A
#MARYHILL 2W    N/A         47  39  74  NW5     N/A
#MOSIER 1S      N/A         44  38  79  SW6     30.15R
#MURDOCK        N/A         48  44  86  W6      30.18R
#RUFUS DOT      N/A         48  34  58  NW12    N/A    WCI 43

$$

ORZ510-230810-
NORTH CENTRAL OREGON

CITY            SKY/WX      TMP DP  RH  WIND    PRES   REMARKS
#CHENOWITH 1W   N/A         40  38  92  NW29    N/A    WCI 29
#COW CYN RST AREN/A         34  29  82  S3      N/A
#DUFUR 9E       N/A         39  32  76  W6      30.21R
#GRASS VALLEY   N/A         35  33  92  S3      N/A
#GRASS VALLEY 1SN/A         36  32  85  SW6     30.20R
#KENT DOT       N/A         35  27  72  SW15    N/A    WCI 25
#MAUPIN SCHOOL  N/A         42  33  70  CALM    29.05R
#MORO SCHOOL    N/A         36  33  89  SW2     30.15R
#SHANIKO 5WSW   N/A         34  23  64  SW12    N/A    WCI 25
#SHANIKO 4NW    N/A         33  28  82  SW13    30.12R WCI 24
#TYGH VALLEY 2NEN/A         42  35  76  N1      30.17R
#WAPANITIA AIRPON/A         41  34  76  W5      30.19R
#WASCO 5NE      N/A         40  36  85  N8      30.16R
$$

ORZ511-230810-
CENTRAL OREGON

CITY            SKY/WX      TMP DP  RH  WIND    PRES   REMARKS
BEND AIRPORT    PTCLDY      32  28  85  CALM    30.19R
MADRAS AIRPORT  CLEAR       32  30  92  S8      30.19R
PRINEVILLE AP   CLEAR       32  28  85  CALM    30.19R
REDMOND AIRPORT CLEAR       32  28  85  S8      30.18R
#BEND 6E        N/A         33  26  75  CALM    30.27R
#BEND 1SW       N/A         32  30  92  SW3     N/A
#BEND-AWBREY    N/A         34  32  92  N7      30.24R
#BEND-KIM LN    N/A         32  29  89  CALM    30.13R
#CROOKED RVR RANN/A         37  31  79  W18     30.23R WCI 27
#CULVER         N/A         37  30  75  SE1     30.14R
#LAKE BILLY CHINN/A         42  18  38  S8      30.22R
#POWELL BUTTE 3EN/A         32  28  85  SE3     N/A
#POWELL BUTTE   N/A         36  28  72  W3      29.80R
#PRINEVILLE 3N  N/A         29  27  92  NE3     30.21R
#WARM SPRINGS   N/A         31  29  92  CALM    30.15R


ORZ509-230810-
EAST SLOPES OF OREGON CASCADES

CITY            SKY/WX      TMP DP  RH  WIND    PRES   REMARKS
#BLUE BOX PASS  N/A         32  -16 11  S3      N/A
#BLACK BUTTE RNCN/A         36  34  92  S1      30.23R
#CAMP SHERMAN   N/A         35  32  89  S1      30.25R
#LA PINE DOT    N/A         32  30  92  CALM    N/A
#LA PINE 4NW    N/A         31  28  88  CALM    30.31R
#LAVA BUTTE DOT N/A         31  29  92  SE3     N/A
#MT BACHELOR-MIDN/A         22  20  92  S10     N/A
#SISTERS AIRPOR N/A         39  35  85  CALM    29.91S
#SISTERS ODOT   N/A         35  N/A N/A S1      N/A
#SISTERS 1NW    N/A         37  29  72  NE2     N/A
#SISTERS 3N     N/A         36  31  82  CALM    30.15S
#SUNRIVER       N/A         32  31  96  SW2     30.16R
#SUNRIVER AP    N/A         42  41  96  CALM    30.23R
#TUMALO 3W      N/A         34  27  75  SE1     30.11R
#WANOGA BUTTE D N/A         26  24  92  W16G30  N/A    WCI 14

$$

ORZ044-230810-
LOWER COLUMBIA BASIN...OREGON

CITY            SKY/WX      TMP DP  RH  WIND    PRES   REMARKS
HERMISTON       PTCLDY      44  33  65  SW15    30.12R WCI 37
#BOARDMAN 3W    N/A         44  35  70  SW10    29.85R
#ECHO 8SW       N/A         44  34  68  W10     30.10R
#IONE SCHOOL    N/A         44  30  58  SW3     30.14R
#IRRIGON 4NW    N/A         45  37  73  S8      N/A
#UMATILLA SCHOOLN/A         42  38  86  CALM    30.15R
#UMATILLA       N/A         44  33  65  CALM    30.10R
$$

ORZ507-230810-
NORTHERN FOOTHILLS OF THE BLUES

CITY            SKY/WX      TMP DP  RH  WIND    PRES   REMARKS
PENDLETON AIRPT MOCLDY      42  32  67  W17     30.10R WCI 34
#ADAMS 3WNW     N/A         40  33  76  SW7     30.14R
#ATHENA         N/A         39  33  79  S1      30.17R
#CAYUSE         N/A         43  33  67  S13     30.14R WCI 36
#HELIX SCHOOL   N/A         38  33  82  S6      30.14R
#HELIX 3N       N/A         38  34  85  SW9     30.07R
#HOLDMAN 5SE    N/A         42  35  76  SW9     30.11R
#HOLDMAN 6E     N/A         39  33  79  N14     29.94R WCI 31
#M-F FERNDALE   N/A         44  33  65  SW1     30.10R
#M-F GROVE ELEM N/A         43  31  62  S8      30.09R
#M-FREEWATER 5SEN/A         43  33  67  SW12    30.11R WCI 37
#PENDLETON DNTN N/A         45  28  51  S3      28.94R
#PDT AQUATIC CTRN/A         46  31  56  S2      30.11R
#PENDLETON 5NE  N/A         44  34  68  SW3     30.08R
#PDT SUNRIDGE   N/A         43  34  70  S6      30.15R
#PENDLETON 7NW  N/A         42  34  73  W13     27.36R WCI 35
#PILOT ROCK     N/A         41  29  62  S7      30.15R
#TUTUILLA       N/A         42  33  70  S8      30.14R
#UMAPINE 2E     N/A         44  35  70  SW10    30.08R
#WESTON SCHOOL  N/A         40  30  67  W8      30.08R

$$

ORZ508-230810-
SOUTHERN FOOTHILLS OF THE BLUES

CITY            SKY/WX      TMP DP  RH  WIND    PRES   REMARKS
LEXINGTON       MOCLEAR     43  32  65  S12     30.17R WCI 37
#AJAX           N/A         39  27  62  S6      30.06R
#CONDON SCHOOL  N/A         34  31  89  CALM    30.09R
#CONDON 5W      N/A         32  28  85  S5      30.09R
#FOSSIL SCHOOL  N/A         38  31  76  CALM    30.11R
#HEPPNER EOC    N/A         40  32  73  S7      30.14R
#HEPPNER 4NE    N/A         36  31  82  SW5     30.17R
#LEXINGTON 2SE  N/A         41  32  70  CALM    30.11R
#MIKKALO        N/A         40  31  70  S6      30.13R
#OLEX 4N        N/A         40  34  79  SW6     30.12R
#RUGGS 5NE      N/A         35  30  82  SW6     30.27S
#RUGGS 2SW      N/A         37  30  75  W9      30.20R

$$

ORZ502-503-230810-
BLUE MOUNTAINS

CITY            SKY/WX      TMP DP  RH  WIND    PRES   REMARKS
MEACHAM         MOCLDY      34  29  82  VRB3    30.09R
#BATTLE MTN DOT N/A         31  30  96  S3      N/A
#HEPPNER 15SE   N/A         31  29  92  W5      30.01R
#LADD CYN SMT   N/A         35  20  54  W16     N/A    WCI 25
#LADD CREEK ODOTN/A         37  -3  18  SW7     N/A
#LONG CREEK HS  N/A         34  32  92  CALM    30.10R
#N POWDER DOT   N/A         33  24  69  NE7     N/A
#PIKES PEAK     N/A         33  31  92  SW24G35 27.99S WCI 20
#TOLLGATE       N/A         27  26  96  S7      29.95R
#TROY SCHOOL    N/A         40  35  82  W3      29.96R
#UKIAH          N/A         34  29  82  CALM    30.21R
#WESTON 4E      N/A         35  31  85  S7      30.10R
$$

ORZ505-230810-
JOHN DAY BASIN

CITY            SKY/WX      TMP DP  RH  WIND    PRES   REMARKS
JOHN DAY        CLOUDY      35  31  85  SW7     30.16R
#DAYVILLE SCHOOLN/A         36  29  75  CALM    30.13R
#MONUMENT HS    N/A         35  29  78  CALM    30.16R
#MT. VERNON 5SE N/A         34  27  75  CALM    30.09R
#WINLOCK        N/A         35  30  82  CALM    30.22R
$$

ORZ506-230810-
OCHOCO AND JOHN DAY HIGHLANDS

CITY            SKY/WX      TMP DP  RH  WIND    PRES   REMARKS
#BUCK CREEK DOT N/A         33  33  100 SW9     N/A
#HORSE RIDGE DO N/A         29  24  81  CALM    N/A
#KEYES SMT DOT  N/A         32  24  72  W2      N/A
#PAULINA SCHOOL N/A         30  26  85  CALM    30.14R
#PINE MTN OBS   N/A         26  25  96  W9      N/A
#PRAIRIE CITY   N/A         28  25  88  CALM    30.33R
#SENECA         N/A         29  N/A N/A W1      N/A
#SENECA 9NW     N/A         28  26  92  CALM    30.19R
$$

ORZ049-230810-
GRANDE RONDE VALLEY

CITY            SKY/WX      TMP DP  RH  WIND    PRES   REMARKS
LA GRANDE       PTCLDY      36  23  59  NE6     30.10R
#COVE           N/A         38  32  79  CALM    30.03S
#COVE SCHOOL    N/A         38  31  76  CALM    30.08R
#COVE 6NW       N/A         35  29  78  CALM    30.20R
#ELGIN 3N       N/A         38  26  62  S2      29.82R
#ELGIN 1E       N/A         38  29  70  CALM    N/A
#IMBLER SCHOOL  N/A         37  28  70  E2      30.07R
#ISLAND CITY 4N N/A         41  40  96  CALM    30.22R
#LADD CYN DOT   N/A         39  26  59  SW14G26 N/A    WCI 31
#UNION 1S       N/A         34  30  85  CALM    30.08R
$$

ORZ050-230810-
WALLOWA COUNTY

CITY            SKY/WX      TMP DP  RH  WIND    PRES   REMARKS
JOSEPH AIRPORT  CLOUDY      36  21  54  W12     30.03R WCI 28
#ENTERPRISE AP  N/A         34  26  72  NW15    29.96R WCI 24
#ENTERPRISE HS  N/A         36  29  75  N7      30.04R
#IMNAHA SCHOOL  N/A         43  32  65  S1      30.06R
#IMNAHA 10S     N/A         40  29  64  S8G26   30.03R
#JOSEPH 3N      N/A         34  24  66  N5      30.04R
#JOSEPH 3W      N/A         32  21  63  CALM    29.87R
#LOSTINE        N/A         36  28  72  W1      29.91R
#MT HOWARD 8000 N/A         18  16  92  W6      29.87R
#PROMISE 1S     N/A         33  29  85  E7      30.20R
#SHEEP RDG 7000 N/A         20  18  92  CALM    30.09R
#WALLOWA SCHOOL N/A         37  30  75  W2      31.09R



$$




U.S. Dept. of Commerce
NOAA National Weather Service
1325 East West Highway
Silver Spring, MD 20910
E-mail: w-nws.webmaster@noaa.gov
Page last modified: May 16, 2007
NATIONAL WEATHER SERVICE: for Safety, for Work, for Fun - FOR LIFE